Location: Bougoura
(13.1861°N, 5.0773°W)
Time: 04:00:22
(UTC+00:00)

Cosmos 1782 Rocket - Pass Details

Date: 18 September 2020
Orbit: 607 x 632 km, 82.5° (Epoch: 23 October)

Event Time Altitude Azimuth Distance (km) Brightness Sun altitude
Rises 18:32:55 0° 172° (S) 2,864 6.9 -4.2°
Reaches altitude 10° 18:35:11 10° 165° (SSE) 1,964 6.0 -4.8°
Maximum altitude 18:39:20 45° 93° (E) 845 3.8 -5.8°
Drops below altitude 10° 18:43:31 10° 20° (NNE) 1,980 6.0 -6.8°
Sets 18:45:49 0° 14° (NNE) 2,890 6.9 -7.4°
